sat.trackr.live / text

‹ back to catalog

YAMAL 202

NORAD 28089 · 2003-053A

PAYLOAD ACTIVE UNKNOWN

§ Identity

Operator
Country
CIS
Launch date
2003-11-24
Launch site
TYMSC
Launch vehicle
Mass (kg)
RCS (m²)
79.43

Purposes: comms

External: N2YO · Heavens-Above · Gunter

§ Orbital elements

Epoch: 2026-09-19T17:44:54.345696Z

Period
1,436.09 min
Inclination
6.5754°
Eccentricity
0.0004756
Mean motion
1.00271969 rev/d
Perigee alt
35,766.5 km
Apogee alt
35,806.6 km
Semi-major
42,164.7 km
B*
0.0000e+0
RAAN
69.7464°
Arg perigee
129.6158°
Mean anomaly
229.0818°
Rev number
8,364

§ Raw data

YAMAL 2021 28089U 03053A   26262.73951789 -.00000082  00000+0  00000+0 0  99942 28089   6.5754  69.7464 0004756 129.6158 229.0818  1.00271969 83642

JSON: /api/v1/satellites/28089 · /tle

For live sub-satellite position, see the globe view (requires WebGL).

§ Visibility from observer

Set your observer location to see the next 7 days of passes ≥ 10°. The values pass through the URL so the page stays shareable.

No JS? Fill the form by hand. The geolocation button needs JavaScript.